Location: Benedenknijpe
(52.9667°N, 5.9667°E)
Time: 12:25:28
(UTC+00:00)

CORIOLIS - Pass Details

Date: 13 December 2025
Orbit: 815 x 836 km, 98.7° (Epoch: 20 April)

Event Time Altitude Azimuth Distance (km) Brightness Sun altitude
Rises 15:58:17 0° 141° (SE) 3,333 7.2 -5.6°
Reaches altitude 10° 16:00:42 10° 136° (SE) 2,405 6.5 -5.9°
Maximum altitude 16:05:44 45° 65° (ENE) 1,099 4.4 -6.6°
Drops below altitude 10° 16:10:49 10° 354° (N) 2,426 6.4 -7.2°
Sets 16:13:15 0° 348° (NNW) 3,365 7.1 -7.5°
